| time (UTC) | temp F | wind direction | speed MPH | gust MPH | rain 1hr in | rain 24hr in | rain mn in | humidity % | barometer mb |
| 20260507083621 | 47 | 185 | 2.0 | 2.0 | 0.00 | 0.00 | 0.00 | 70 | 1013.5 |
| 20260507083121 | 47 | 194 | 1.0 | 1.0 | 0.00 | 0.00 | 0.00 | 69 | 1013.5 |
| 20260507082121 | 47 | 191 | 1.0 | 1.0 | 0.00 | 0.00 | 0.00 | 68 | 1013.5 |
| 20260507081621 | 47 | 192 | 1.0 | 1.0 | 0.00 | 0.00 | 0.00 | 68 | 1013.5 |
| 20260507081120 | 47 | 249 | 1.0 | 1.0 | 0.00 | 0.00 | 0.00 | 67 | 1013.5 |
| 20260507080120 | 46 | 238 | 1.0 | 1.0 | 0.00 | 0.00 | 0.00 | 66 | 1013.9 |
| 20260507075621 | 46 | 258 | 1.0 | 1.0 | 0.00 | 0.00 | 0.00 | 67 | 1013.9 |
| 20260507075120 | 46 | 166 | 1.0 | 1.0 | 0.00 | 0.00 | 0.00 | 65 | 1013.9 |
| 20260507074120 | 46 | 200 | 1.0 | 1.0 | 0.00 | 0.00 | 0.00 | 64 | 1013.9 |
| 20260507073121 | 46 | 182 | 1.0 | 1.0 | 0.00 | 0.00 | 0.00 | 63 | 1014.2 |
| 20260507072120 | 46 | 236 | 1.0 | 1.0 | 0.00 | 0.00 | 0.00 | 62 | 1014.2 |
| 20260507071120 | 46 | 214 | 0.0 | 0.0 | 0.00 | 0.00 | 0.00 | 61 | 1014.2 |
| 20260507070621 | 45 | 250 | 0.0 | 0.0 | 0.00 | 0.00 | 0.00 | 61 | 1014.6 |
| 20260507070120 | 45 | 178 | 0.0 | 0.0 | 0.00 | 0.00 | 0.00 | 60 | 1014.6 |
| 20260507065120 | 43 | 231 | 0.0 | 0.0 | 0.00 | 0.00 | 0.00 | 63 | 1014.6 |
| 20260507064620 | 42 | 357 | 0.0 | 0.0 | 0.00 | 0.00 | 0.00 | 63 | 1014.6 |
| 20260507063621 | 42 | 276 | 0.0 | 0.0 | 0.00 | 0.00 | 0.00 | 63 | 1014.6 |
| 20260507063120 | 42 | 253 | 0.0 | 0.0 | 0.00 | 0.00 | 0.00 | 62 | 1014.9 |
| 20260507062120 | 42 | 225 | 0.0 | 0.0 | 0.00 | 0.00 | 0.00 | 60 | 1014.9 |
| 20260507060620 | 42 | 260 | 0.0 | 0.0 | 0.00 | 0.00 | 0.00 | 60 | 1014.9 |
| 20260507055620 | 42 | 240 | 0.0 | 0.0 | 0.00 | 0.00 | 0.00 | 61 | 1014.9 |
| 20260507055120 | 42 | 279 | 0.0 | 0.0 | 0.00 | 0.00 | 0.00 | 63 | 1014.9 |
| 20260507054120 | 43 | 318 | 0.0 | 0.0 | 0.00 | 0.00 | 0.00 | 63 | 1015.2 |
| 20260507053120 | 43 | 281 | 0.0 | 0.0 | 0.00 | 0.00 | 0.00 | 63 | 1014.9 |
| 20260507052620 | 44 | 258 | 0.0 | 0.0 | 0.00 | 0.00 | 0.00 | 62 | 1014.9 |
| 20260507052120 | 44 | 280 | 0.0 | 0.0 | 0.00 | 0.00 | 0.00 | 62 | 1014.9 |
| 20260507051120 | 43 | 250 | 0.0 | 0.0 | 0.00 | 0.00 | 0.00 | 61 | 1015.2 |
| 20260507050620 | 42 | 241 | 0.0 | 0.0 | 0.00 | 0.00 | 0.00 | 63 | 1015.2 |
| 20260507045621 | 42 | 229 | 0.0 | 0.0 | 0.00 | 0.00 | 0.00 | 65 | 1015.2 |
| 20260507043621 | 42 | 268 | 0.0 | 0.0 | 0.00 | 0.00 | 0.00 | 66 | 1015.2 |
| 20260507043121 | 42 | 249 | 0.0 | 0.0 | 0.00 | 0.00 | 0.00 | 68 | 1015.2 |
| 20260507042121 | 42 | 248 | 0.0 | 0.0 | 0.00 | 0.00 | 0.00 | 70 | 1015.2 |
| 20260507040120 | 43 | 256 | 0.0 | 0.0 | 0.00 | 0.00 | 0.00 | 61 | 1015.6 |
| 20260507035121 | 43 | 171 | 0.0 | 0.0 | 0.00 | 0.00 | 0.00 | 58 | 1015.6 |
| 20260507034620 | 44 | 244 | 0.0 | 0.0 | 0.00 | 0.00 | 0.00 | 57 | 1015.6 |
| 20260507034121 | 44 | 242 | 0.0 | 0.0 | 0.00 | 0.00 | 0.00 | 57 | 1015.6 |
| 20260507033120 | 45 | 252 | 0.0 | 0.0 | 0.00 | 0.00 | 0.00 | 55 | 1015.6 |
| 20260507032620 | 45 | 252 | 0.0 | 0.0 | 0.00 | 0.00 | 0.00 | 55 | 1015.6 |
| 20260507031621 | 46 | 300 | 0.0 | 0.0 | 0.00 | 0.00 | 0.00 | 51 | 1015.6 |
| 20260507030621 | 46 | 271 | 0.0 | 0.0 | 0.00 | 0.00 | 0.00 | 54 | 1015.6 |
| 20260507030120 | 46 | 336 | 0.0 | 0.0 | 0.00 | 0.00 | 0.00 | 55 | 1015.6 |
| 20260507024121 | 47 | 292 | 0.0 | 0.0 | 0.00 | 0.00 | 0.00 | 49 | 1015.6 |
| 20260507023620 | 48 | 278 | 0.0 | 0.0 | 0.00 | 0.00 | 0.00 | 49 | 1015.2 |
| 20260507022120 | 50 | 339 | 0.0 | 0.0 | 0.00 | 0.00 | 0.00 | 47 | 1015.2 |
| 20260507021621 | 50 | 314 | 0.0 | 0.0 | 0.00 | 0.00 | 0.00 | 43 | 1015.2 |
| 20260507020621 | 51 | 296 | 0.0 | 0.0 | 0.00 | 0.00 | 0.00 | 41 | 1015.2 |
| 20260507020120 | 51 | 323 | 0.0 | 0.0 | 0.00 | 0.00 | 0.00 | 41 | 1015.2 |
| 20260507015620 | 52 | 317 | 0.0 | 0.0 | 0.00 | 0.00 | 0.00 | 39 | 1015.2 |
| 20260507015121 | 52 | 317 | 0.0 | 0.0 | 0.00 | 0.00 | 0.00 | 39 | 1015.2 |
| 20260507014121 | 53 | 326 | 0.0 | 0.0 | 0.00 | 0.00 | 0.00 | 39 | 1015.2 |
| 20260507013121 | 54 | 282 | 0.0 | 0.0 | 0.00 | 0.00 | 0.00 | 38 | 1015.2 |
| 20260507012621 | 55 | 316 | 0.0 | 0.0 | 0.00 | 0.00 | 0.00 | 37 | 1015.2 |
| 20260507012120 | 55 | 316 | 0.0 | 0.0 | 0.00 | 0.00 | 0.00 | 37 | 1015.2 |
| 20260507011121 | 57 | 283 | 1.0 | 1.0 | 0.00 | 0.00 | 0.00 | 34 | 1015.2 |
| 20260507010621 | 58 | 0 | 1.0 | 1.0 | 0.00 | 0.00 | 0.00 | 30 | 1015.2 |
| 20260507005120 | 60 | 338 | 1.0 | 1.0 | 0.00 | 0.00 | 0.00 | 29 | 1015.2 |
| 20260507004121 | 60 | 315 | 1.0 | 1.0 | 0.00 | 0.00 | 0.00 | 27 | 1015.2 |
| 20260507003621 | 60 | 298 | 1.0 | 1.0 | 0.00 | 0.00 | 0.00 | 29 | 1015.2 |
| 20260507002621 | 60 | 290 | 1.0 | 1.0 | 0.00 | 0.00 | 0.00 | 28 | 1015.2 |
| 20260507002120 | 60 | 290 | 1.0 | 1.0 | 0.00 | 0.00 | 0.00 | 28 | 1015.2 |
| 20260507001120 | 60 | 10 | 1.0 | 1.0 | 0.00 | 0.00 | 0.00 | 28 | 1015.2 |
| 20260507000621 | 60 | 312 | 1.0 | 1.0 | 0.00 | 0.00 | 0.00 | 29 | 1015.6 |
| 20260506235620 | 60 | 282 | 2.0 | 2.0 | 0.00 | 0.00 | 0.00 | 28 | 1015.6 |
| 20260506234620 | 59 | 14 | 2.0 | 2.0 | 0.00 | 0.00 | 0.00 | 30 | 1015.6 |
| 20260506234120 | 59 | 19 | 2.0 | 2.0 | 0.00 | 0.00 | 0.00 | 29 | 1015.9 |
| 20260506233121 | 60 | 303 | 2.0 | 2.0 | 0.00 | 0.00 | 0.00 | 29 | 1015.9 |
| 20260506232620 | 61 | 306 | 2.0 | 2.0 | 0.00 | 0.00 | 0.00 | 28 | 1015.9 |
| 20260506232121 | 61 | 18 | 2.0 | 2.0 | 0.00 | 0.00 | 0.00 | 29 | 1015.9 |
| 20260506231121 | 60 | 354 | 2.0 | 2.0 | 0.00 | 0.00 | 0.00 | 30 | 1015.9 |
| 20260506230124 | 60 | 10 | 2.0 | 2.0 | 0.00 | 0.00 | 0.00 | 30 | 1015.9 |
| 20260506225621 | 60 | 324 | 2.0 | 2.0 | 0.00 | 0.00 | 0.00 | 30 | 1015.9 |
| 20260506225121 | 60 | 20 | 2.0 | 2.0 | 0.00 | 0.00 | 0.00 | 30 | 1015.9 |
| 20260506224621 | 60 | 23 | 2.0 | 2.0 | 0.00 | 0.00 | 0.00 | 29 | 1015.9 |
| 20260506224120 | 60 | 5 | 2.0 | 2.0 | 0.00 | 0.00 | 0.00 | 30 | 1015.9 |
| 20260506223121 | 60 | 348 | 3.0 | 3.0 | 0.00 | 0.00 | 0.00 | 30 | 1016.3 |
| 20260506222621 | 60 | 328 | 3.0 | 3.0 | 0.00 | 0.00 | 0.00 | 29 | 1016.3 |
| 20260506222121 | 61 | 330 | 3.0 | 3.0 | 0.00 | 0.00 | 0.00 | 30 | 1016.3 |
| 20260506221620 | 61 | 358 | 2.0 | 2.0 | 0.00 | 0.00 | 0.00 | 29 | 1016.3 |
| 20260506220621 | 60 | 347 | 3.0 | 3.0 | 0.00 | 0.00 | 0.00 | 29 | 1016.3 |
| 20260506215621 | 60 | 358 | 3.0 | 3.0 | 0.00 | 0.00 | 0.00 | 30 | 1016.3 |
| 20260506215121 | 60 | 15 | 3.0 | 3.0 | 0.00 | 0.00 | 0.00 | 29 | 1016.3 |
| 20260506214121 | 60 | 6 | 3.0 | 3.0 | 0.00 | 0.00 | 0.00 | 30 | 1016.6 |
| 20260506213121 | 60 | 317 | 3.0 | 3.0 | 0.00 | 0.00 | 0.00 | 31 | 1016.6 |
| 20260506212621 | 60 | 11 | 3.0 | 3.0 | 0.00 | 0.00 | 0.00 | 31 | 1016.6 |
| 20260506211620 | 60 | 316 | 3.0 | 3.0 | 0.00 | 0.00 | 0.00 | 32 | 1016.6 |
| 20260506211120 | 60 | 349 | 3.0 | 3.0 | 0.00 | 0.00 | 0.00 | 30 | 1016.9 |
| 20260506210120 | 59 | 299 | 3.0 | 3.0 | 0.00 | 0.00 | 0.00 | 31 | 1016.9 |
| 20260506204621 | 60 | 337 | 3.0 | 3.0 | 0.00 | 0.00 | 0.00 | 31 | 1017.3 |
| 20260506204121 | 60 | 325 | 3.0 | 3.0 | 0.00 | 0.00 | 0.00 | 30 | 1017.3 |
| 20260506203121 | 59 | 291 | 3.0 | 3.0 | 0.00 | 0.00 | 0.00 | 31 | 1017.3 |
| 20260506202621 | 59 | 269 | 3.0 | 3.0 | 0.00 | 0.00 | 0.00 | 32 | 1017.3 |
| 20260506201121 | 58 | 9 | 2.0 | 2.0 | 0.00 | 0.00 | 0.00 | 35 | 1017.6 |
| 20260506200121 | 58 | 0 | 3.0 | 3.0 | 0.00 | 0.00 | 0.00 | 35 | 1017.6 |
| 20260506195620 | 58 | 38 | 3.0 | 3.0 | 0.00 | 0.00 | 0.00 | 33 | 1017.6 |
| 20260506194621 | 58 | 11 | 3.0 | 3.0 | 0.00 | 0.00 | 0.00 | 35 | 1017.6 |
| 20260506194121 | 59 | 285 | 3.0 | 3.0 | 0.00 | 0.00 | 0.00 | 33 | 1017.6 |
| 20260506193120 | 58 | 16 | 3.0 | 3.0 | 0.00 | 0.00 | 0.00 | 32 | 1017.6 |
| 20260506192620 | 58 | 274 | 3.0 | 3.0 | 0.00 | 0.00 | 0.00 | 35 | 1017.9 |
| 20260506191621 | 58 | 335 | 3.0 | 3.0 | 0.00 | 0.00 | 0.00 | 34 | 1017.6 |
| 20260506190621 | 58 | 343 | 3.0 | 3.0 | 0.00 | 0.00 | 0.00 | 34 | 1017.9 |
| 20260506190121 | 58 | 359 | 3.0 | 3.0 | 0.00 | 0.00 | 0.00 | 34 | 1017.9 |
| 20260506185621 | 57 | 349 | 3.0 | 3.0 | 0.00 | 0.00 | 0.00 | 35 | 1017.9 |
| 20260506184621 | 57 | 9 | 2.0 | 2.0 | 0.00 | 0.00 | 0.00 | 37 | 1017.9 |
| 20260506183621 | 58 | 326 | 2.0 | 2.0 | 0.00 | 0.00 | 0.00 | 35 | 1018.3 |
| 20260506183121 | 57 | 359 | 2.0 | 2.0 | 0.00 | 0.00 | 0.00 | 35 | 1018.3 |
| 20260506182621 | 57 | 20 | 2.0 | 2.0 | 0.00 | 0.00 | 0.00 | 36 | 1018.3 |
| 20260506181621 | 56 | 352 | 2.0 | 2.0 | 0.00 | 0.00 | 0.00 | 35 | 1018.3 |
| 20260506181120 | 56 | 1 | 3.0 | 3.0 | 0.00 | 0.00 | 0.00 | 39 | 1018.3 |
| 20260506180121 | 56 | 32 | 2.0 | 2.0 | 0.00 | 0.00 | 0.00 | 36 | 1018.6 |
| 20260506175620 | 55 | 42 | 2.0 | 2.0 | 0.00 | 0.00 | 0.00 | 39 | 1018.6 |
| 20260506174621 | 55 | 349 | 2.0 | 2.0 | 0.00 | 0.00 | 0.00 | 39 | 1018.6 |
| 20260506174121 | 55 | 262 | 3.0 | 3.0 | 0.00 | 0.00 | 0.00 | 38 | 1018.6 |
| 20260506173121 | 55 | 32 | 3.0 | 3.0 | 0.00 | 0.00 | 0.00 | 39 | 1019.0 |
| 20260506172621 | 55 | 4 | 3.0 | 3.0 | 0.00 | 0.00 | 0.00 | 38 | 1019.0 |
| 20260506172120 | 54 | 303 | 3.0 | 3.0 | 0.00 | 0.00 | 0.00 | 38 | 1019.0 |
| 20260506171121 | 53 | 29 | 3.0 | 3.0 | 0.00 | 0.00 | 0.00 | 39 | 1019.0 |
| 20260506170121 | 53 | 282 | 3.0 | 3.0 | 0.00 | 0.00 | 0.00 | 38 | 1019.3 |
| 20260506165121 | 53 | 358 | 2.0 | 2.0 | 0.00 | 0.00 | 0.00 | 38 | 1019.3 |
| 20260506164121 | 53 | 29 | 2.0 | 2.0 | 0.00 | 0.00 | 0.00 | 40 | 1019.3 |
| 20260506162621 | 53 | 6 | 2.0 | 2.0 | 0.00 | 0.00 | 0.00 | 38 | 1019.3 |
| 20260506161621 | 52 | 25 | 2.0 | 2.0 | 0.00 | 0.00 | 0.00 | 40 | 1019.3 |
| 20260506161121 | 53 | 27 | 2.0 | 2.0 | 0.00 | 0.00 | 0.00 | 38 | 1019.0 |
| 20260506160121 | 52 | 18 | 2.0 | 2.0 | 0.00 | 0.00 | 0.00 | 40 | 1019.3 |
| 20260506155121 | 52 | 338 | 2.0 | 2.0 | 0.00 | 0.00 | 0.00 | 41 | 1019.0 |
| 20260506154121 | 52 | 27 | 2.0 | 2.0 | 0.00 | 0.00 | 0.00 | 42 | 1019.0 |
| 20260506153621 | 52 | 22 | 2.0 | 2.0 | 0.00 | 0.00 | 0.00 | 43 | 1019.0 |
| 20260506151621 | 52 | 353 | 2.0 | 2.0 | 0.00 | 0.00 | 0.00 | 42 | 1019.0 |
| 20260506151121 | 51 | 340 | 2.0 | 2.0 | 0.00 | 0.00 | 0.00 | 43 | 1019.0 |
| 20260506150621 | 51 | 320 | 1.0 | 1.0 | 0.00 | 0.00 | 0.00 | 42 | 1019.0 |
| 20260506144621 | 52 | 12 | 1.0 | 1.0 | 0.00 | 0.00 | 0.00 | 42 | 1019.0 |
| 20260506144121 | 51 | 359 | 1.0 | 1.0 | 0.00 | 0.00 | 0.00 | 43 | 1019.3 |
| 20260506143121 | 50 | 26 | 1.0 | 1.0 | 0.00 | 0.00 | 0.00 | 45 | 1019.0 |
| 20260506142120 | 50 | 26 | 1.0 | 1.0 | 0.00 | 0.00 | 0.00 | 44 | 1019.0 |
| 20260506141121 | 50 | 29 | 1.0 | 1.0 | 0.00 | 0.00 | 0.00 | 46 | 1019.0 |
| 20260506140120 | 50 | 3 | 1.0 | 1.0 | 0.00 | 0.00 | 0.00 | 48 | 1019.0 |
| 20260506135121 | 50 | 348 | 1.0 | 1.0 | 0.00 | 0.00 | 0.00 | 47 | 1019.0 |
| 20260506134621 | 50 | 351 | 1.0 | 1.0 | 0.00 | 0.00 | 0.00 | 48 | 1019.0 |
| 20260506133621 | 49 | 24 | 1.0 | 1.0 | 0.00 | 0.00 | 0.00 | 48 | 1019.0 |
| 20260506133121 | 49 | 359 | 1.0 | 1.0 | 0.00 | 0.00 | 0.00 | 50 | 1018.6 |
| 20260506132121 | 48 | 13 | 1.0 | 1.0 | 0.00 | 0.00 | 0.00 | 51 | 1018.6 |
| 20260506130621 | 46 | 356 | 1.0 | 1.0 | 0.00 | 0.00 | 0.00 | 54 | 1018.3 |
| 20260506130121 | 45 | 2 | 1.0 | 1.0 | 0.00 | 0.00 | 0.00 | 54 | 1018.3 |
| 20260506125121 | 44 | 33 | 1.0 | 1.0 | 0.00 | 0.00 | 0.00 | 55 | 1018.3 |
| 20260506124621 | 44 | 8 | 1.0 | 1.0 | 0.00 | 0.00 | 0.00 | 55 | 1018.3 |
| 20260506124121 | 43 | 35 | 1.0 | 1.0 | 0.00 | 0.00 | 0.00 | 57 | 1017.9 |
| 20260506123121 | 42 | 42 | 0.0 | 0.0 | 0.00 | 0.00 | 0.00 | 60 | 1017.9 |
| 20260506122621 | 40 | 296 | 0.0 | 0.0 | 0.00 | 0.00 | 0.00 | 66 | 1017.9 |
| 20260506121621 | 39 | 300 | 0.0 | 0.0 | 0.00 | 0.00 | 0.00 | 67 | 1017.6 |
| 20260506121121 | 38 | 339 | 0.0 | 0.0 | 0.00 | 0.00 | 0.00 | 67 | 1017.6 |
| 20260506115621 | 37 | 287 | 0.0 | 0.0 | 0.00 | 0.00 | 0.00 | 67 | 1017.6 |
| 20260506115121 | 38 | 243 | 0.0 | 0.0 | 0.00 | 0.00 | 0.00 | 67 | 1017.3 |
| 20260506114121 | 38 | 207 | 1.0 | 1.0 | 0.00 | 0.00 | 0.00 | 65 | 1017.3 |
| 20260506113121 | 38 | 205 | 0.0 | 0.0 | 0.00 | 0.00 | 0.00 | 65 | 1017.3 |
| 20260506112621 | 39 | 224 | 0.0 | 0.0 | 0.00 | 0.00 | 0.00 | 64 | 1017.3 |
| 20260506111621 | 39 | 293 | 0.0 | 0.0 | 0.00 | 0.00 | 0.00 | 62 | 1017.3 |
| 20260506110621 | 40 | 260 | 0.0 | 0.0 | 0.00 | 0.00 | 0.00 | 61 | 1017.3 |
| 20260506110121 | 40 | 271 | 0.0 | 0.0 | 0.00 | 0.00 | 0.00 | 60 | 1017.3 |
| 20260506105121 | 41 | 212 | 0.0 | 0.0 | 0.00 | 0.00 | 0.00 | 59 | 1017.3 |
| 20260506102621 | 41 | 222 | 0.0 | 0.0 | 0.00 | 0.00 | 0.00 | 58 | 1016.9 |
| 20260506102121 | 41 | 0 | 0.0 | 0.0 | 0.00 | 0.00 | 0.00 | 58 | 1016.9 |
| 20260506101121 | 41 | 324 | 0.0 | 0.0 | 0.00 | 0.00 | 0.00 | 57 | 1016.9 |
| 20260506100621 | 42 | 271 | 0.0 | 0.0 | 0.00 | 0.00 | 0.00 | 56 | 1016.9 |
| 20260506095621 | 42 | 0 | 0.0 | 0.0 | 0.00 | 0.00 | 0.00 | 56 | 1016.6 |
| 20260506094621 | 42 | 285 | 0.0 | 0.0 | 0.00 | 0.00 | 0.00 | 54 | 1016.6 |
| 20260506094121 | 42 | 196 | 0.0 | 0.0 | 0.00 | 0.00 | 0.00 | 54 | 1016.6 |
| 20260506093621 | 43 | 202 | 0.0 | 0.0 | 0.00 | 0.00 | 0.00 | 54 | 1016.6 |
| 20260506092621 | 43 | 323 | 0.0 | 0.0 | 0.00 | 0.00 | 0.00 | 53 | 1016.3 |
| 20260506090621 | 44 | 346 | 0.0 | 0.0 | 0.00 | 0.00 | 0.00 | 53 | 1016.3 |
| 20260506090121 | 44 | 328 | 0.0 | 0.0 | 0.00 | 0.00 | 0.00 | 52 | 1016.3 |
| 20260506085121 | 45 | 280 | 0.0 | 0.0 | 0.00 | 0.00 | 0.00 | 50 | 1016.3 |
| 20260506084121 | 45 | 4 | 0.0 | 0.0 | 0.00 | 0.00 | 0.00 | 48 | 1016.3 |